Location: *
(51.0333°S, 178.4667°E)
Time: 02:37:54
(UTC+00:00)

Envisat - Pass Details

Date: 24 January 2020
Orbit: 764 x 766 km, 98.1° (Epoch: 25 February)

Event Time Altitude Azimuth Distance (km) Brightness Sun altitude
Rises 15:40:10 0° 80° (E) 3,251 6.8 -7.0°
Reaches altitude 10° 15:43:58 10° 109° (ESE) 2,334 6.8 -6.5°
Maximum altitude 15:45:54 12° 131° (SE) 2,191 7.1 -6.3°
Drops below altitude 10° 15:47:49 10° 153° (SSE) 2,343 6.9 -6.1°
Sets 15:51:38 0° 181° (S) 3,278 6.9 -5.6°
